This demonstration page uses our WeatherBlox Daily Observations layout. Learn more.

Left ArrowRight Arrow

39.01783, -85.05884

Hourly Observations for April 11, 2019

Temp ( °F °C ) Dew Point ( °F °C ) Humidity (%) Winds ( mph kmh ) Pressure ( in mb ) Visibility ( mi km ) Precip ( " mm )
12:52 am 00:52 Cloudy 53 11.7 39 3.9 59 59 ENE 16 26 29.83 1010 10 16 N/A
1:52 am 01:52 Cloudy 52 11.1 39 3.9 61 61 ENE 14 22 29.83 1010 10 16 N/A
2:52 am 02:52 Cloudy 52 11.1 39 3.9 61 61 ENE 13 20 29.81 1010 10 16 N/A
3:52 am 03:52 Cloudy 51 10.6 38 3.3 61 61 E 14 22 29.80 1009 10 16 N/A
4:52 am 04:52 Cloudy 50 10 38 3.3 63 63 E 8 13 29.79 1009 10 16 N/A
5:52 am 05:52 Cloudy 50 10 37 2.8 61 61 E 8 13 29.80 1009 10 16 N/A
6:52 am 06:52 Cloudy 49 9.4 37 2.8 64 64 E 9 15 29.80 1009 10 16 N/A
7:52 am 07:52 Cloudy 50 10 37 2.8 61 61 E 8 13 29.82 1010 10 16 N/A
8:52 am 08:52 Cloudy 52 11.1 37 2.8 57 57 E 8 13 29.83 1010 10 16 N/A
9:52 am 09:52 Cloudy 57 13.9 39 3.9 51 51 ESE 8 13 29.82 1010 10 16 N/A
10:52 am 10:52 Cloudy 63 17.2 44 6.7 50 50 SE 8 13 29.82 1010 10 16 N/A
11:52 am 11:52 Cloudy 69 20.6 48 8.9 47 47 S 13 20 29.81 1010 10 16 N/A
12:52 pm 12:52 Cloudy 73 22.8 51 10.6 46 46 S 16 26 29.79 1009 10 16 N/A
1:52 pm 13:52 Cloudy 78 25.6 54 12.2 43 43 SW 15 24 29.75 1008 10 16 N/A
2:52 pm 14:52 Cloudy 80 26.7 51 10.6 37 37 SSW 20 31 29.74 1007 10 16 N/A
3:52 pm 15:52 Cloudy 79 26.1 54 12.2 42 42 S 20 31 29.73 1007 10 16 N/A
4:52 pm 16:52 Cloudy 80 26.7 53 11.7 39 39 S 21 33 29.71 1006 10 16 N/A
5:52 pm 17:52 Cloudy 80 26.7 53 11.7 39 39 S 21 33 29.70 1006 10 16 N/A
6:52 pm 18:52 Cloudy 79 26.1 53 11.7 41 41 S 17 28 29.71 1006 10 16 N/A
7:52 pm 19:52 Cloudy 77 25 51 10.6 40 40 S 15 24 29.70 1006 10 16 N/A
8:52 pm 20:52 Cloudy 74 23.3 51 10.6 45 45 SSE 13 20 29.71 1006 10 16 N/A
9:52 pm 21:52 Cloudy 74 23.3 51 10.6 45 45 SSE 13 20 29.72 1007 10 16 N/A
10:52 pm 22:52 Cloudy 74 23.3 49 9.4 41 41 S 18 30 29.71 1006 10 16 N/A
11:52 pm 23:52 Cloudy 75 23.9 48 8.9 39 39 S 20 31 29.70 1006 10 16 N/A

Powered by AerisWeather